Change the Weather History Date:

Monday, October 7, 2013

  Actual Average Record
Temperature  
Mean Temperature 68 °F -  
Max Temperature 76 °F 80 °F 87 °F (1956)
Min Temperature 61 °F 62 °F 44 °F (1964)
Cooling Degree Days 4    
Growing Degree Days 18 (Base 50)    
Moisture  
Dew Point 53 °F    
Average Humidity 59    
Maximum Humidity 75    
Minimum Humidity 37    
Precipitation  
Precipitation 0.00 in - - ()
Sea Level Pressure  
Sea Level Pressure 29.96 in    
Wind  
Wind Speed 13 mph (North)    
Max Wind Speed 16 mph    
Max Gust Speed 24 mph    
Visibility 10 miles    
Events      
Averages and records for this station are not official NWS values.
T = Trace of Precipitation, MM = Missing Value Source: NWS Daily Summary

Daily Weather History Graph

Daily Weather History Graph

Search for Another Location

Airport or City:

Trip Planner

Search our weather history database for the weather conditions in past years. The results will help you decide how hot, cold, wet, or windy it might be!

Date:

Astronomy

Oct. 07, 2013 Rise Set
Actual Time 6:52 AM CDT 6:33 PM CDT
Civil Twilight 6:28 AM CDT 6:57 PM CDT
Nautical Twilight 6:01 AM CDT 7:25 PM CDT
Astronomical Twilight 5:33 AM CDT 7:53 PM CDT
Moon 9:29 AM CDT (10/7) 8:32 PM CDT (10/7)
Length of Visible Light 12h 28m
Length of Day
11h 40m
Waxing Crescent, 9% of the Moon is Illuminated
Oct 7
Waxing Crescent
Oct 11
First Quarter
Oct 18
Full
Oct 26
Last Quarter
Nov 3
New

Hourly Weather History & Observations

Time (CDT) Temp. Dew Point Humidity Pressure Visibility Wind Dir Wind Speed Gust Speed Precip Events Conditions
12:58 AM 68.4 °F 57.9 °F 69% 29.92 in 10.0 mi North 12.7 mph - N/A   Overcast
1:58 AM 67.3 °F 56.5 °F 68% 29.92 in 10.0 mi North 15.0 mph 21.9 mph N/A   Overcast
2:58 AM 66.6 °F 54.5 °F 65% 29.91 in 10.0 mi North 16.1 mph - N/A   Overcast
3:58 AM 65.1 °F 53.8 °F 67% 29.91 in 10.0 mi North 12.7 mph - N/A   Partly Cloudy
4:58 AM 64.2 °F 52.7 °F 66% 29.92 in 10.0 mi North 12.7 mph - N/A   Clear
5:58 AM 63.0 °F 52.5 °F 69% 29.93 in 10.0 mi NNW 10.4 mph - N/A   Clear
6:58 AM 61.2 °F 52.7 °F 74% 29.95 in 10.0 mi North 10.4 mph - N/A   Clear
7:58 AM 61.5 °F 53.2 °F 74% 29.97 in 10.0 mi North 12.7 mph 19.6 mph N/A   Clear
8:58 AM 64.4 °F 52.7 °F 66% 29.99 in 10.0 mi NNE 13.8 mph - N/A   Clear
9:58 AM 67.5 °F 50.7 °F 55% 30.00 in 10.0 mi NNE 15.0 mph 20.7 mph N/A   Clear
10:58 AM 70.3 °F 51.3 °F 51% 29.99 in 10.0 mi North 13.8 mph 19.6 mph N/A   Clear
11:58 AM 72.5 °F 50.7 °F 46% 29.98 in 10.0 mi North 15.0 mph 21.9 mph N/A   Clear
12:58 PM 74.3 °F 48.0 °F 39% 29.97 in 10.0 mi North 16.1 mph 23.0 mph N/A   Clear
1:58 PM 75.7 °F 47.5 °F 37% 29.95 in 10.0 mi North 16.1 mph 24.2 mph N/A   Clear
2:58 PM 76.1 °F 49.3 °F 39% 29.94 in 10.0 mi North 15.0 mph 19.6 mph N/A   Clear
3:58 PM 76.1 °F 51.4 °F 42% 29.94 in 10.0 mi North 13.8 mph - N/A   Clear
4:58 PM 74.8 °F 52.0 °F 45% 29.93 in 10.0 mi North 16.1 mph 20.7 mph N/A   Clear
5:58 PM 72.7 °F 52.7 °F 49% 29.95 in 10.0 mi North 12.7 mph 19.6 mph N/A   Clear
6:58 PM 69.6 °F 54.0 °F 57% 29.97 in 10.0 mi NNW 6.9 mph - N/A   Clear
7:58 PM 67.6 °F 54.3 °F 62% 29.99 in 10.0 mi North 9.2 mph - N/A   Clear
8:58 PM 65.8 °F 54.0 °F 65% 30.02 in 10.0 mi North 8.1 mph - N/A   Clear
9:58 PM 64.2 °F 54.3 °F 70% 30.03 in 10.0 mi North 6.9 mph - N/A   Clear
10:58 PM 63.5 °F 54.3 °F 72% 30.04 in 10.0 mi North 9.2 mph - N/A   Clear
11:58 PM 62.2 °F 54.1 °F 75% 30.02 in 10.0 mi North 6.9 mph - N/A   Clear